Weather History for Monroe, MI

Change the Weather History Date:

Sunday, December 25, 2011

  Actual Average Record
Temperature  
Mean Temperature 38 °F -  
Max Temperature 44 °F 32 °F 61 °F (1932)
Min Temperature 33 °F 17 °F -11 °F (1983)
Degree Days  
Heating Degree Days 26    
Moisture  
Dew Point 29 °F    
Average Humidity 72    
Maximum Humidity 87    
Minimum Humidity 53    
Precipitation  
Precipitation 0.00 in - - ()
Sea Level Pressure  
Sea Level Pressure 30.03 in    
Wind  
Wind Speed 15 mph (WSW)    
Max Wind Speed 24 mph    
Max Gust Speed 31 mph    
Visibility 10 miles    
Events      
Averages and records for this station are not official NWS values.
T = Trace of Precipitation, MM = Missing Value Source: NWS Daily Summary

Daily Weather History Graph

Daily Weather History Graph

Search for Another Location

Airport:

Trip Planner

Search our weather history database for the weather conditions in past years. The results will help you decide how hot, cold, wet, or windy it might be!

Date:

Astronomy

Dec. 25, 2011 Rise Set
Actual Time 7:59 AM EST 5:07 PM EST
Civil Twilight 7:28 AM EST 5:39 PM EST
Nautical Twilight 6:52 AM EST 6:14 PM EST
Astronomical Twilight 6:18 AM EST 6:48 PM EST
Moon 8:36 AM EST (12/25) 6:28 PM EST (12/25)
Length of Visible Light 10h 11m
Length of Day
9h 07m
New Moon, 1% of the Moon is Illuminated
Dec 25
New Moon
Jan 1
First Quarter
Jan 9
Full
Jan 16
Last Quarter
Jan 23
New

Hourly Weather History & Observations

Time (EST) Temp. Windchill Dew Point Humidity Pressure Visibility Wind Dir Wind Speed Gust Speed Precip Events Conditions
12:12 AM 33.8 °F 23.9 °F 28.4 °F 81% 30.16 in 10.0 mi SW 15.0 mph 20.7 mph N/A   Clear
12:32 AM 33.8 °F 24.3 °F 28.4 °F 81% 30.16 in 10.0 mi WSW 13.8 mph - N/A   Clear
12:52 AM 33.8 °F 25.3 °F 28.4 °F 81% 30.15 in 10.0 mi SW 11.5 mph 18.4 mph N/A   Clear
1:12 AM 33.8 °F 26.4 °F 28.4 °F 81% 30.14 in 10.0 mi SW 9.2 mph - N/A   Clear
1:33 AM 33.8 °F 24.8 °F 28.4 °F 81% 30.13 in 10.0 mi SW 12.7 mph - N/A   Clear
1:53 AM 33.8 °F 25.8 °F 28.4 °F 81% 30.12 in 10.0 mi SW 10.4 mph - N/A   Clear
2:13 AM 33.8 °F 24.8 °F 28.4 °F 81% 30.11 in 10.0 mi SW 12.7 mph 18.4 mph N/A   Clear
2:33 AM 33.8 °F 25.3 °F 28.4 °F 81% 30.11 in 10.0 mi SW 11.5 mph 17.3 mph N/A   Clear
2:53 AM 33.8 °F 24.3 °F 28.4 °F 81% 30.10 in 10.0 mi SW 13.8 mph - N/A   Clear
3:13 AM 33.8 °F 25.3 °F 30.2 °F 87% 30.10 in 10.0 mi SW 11.5 mph 17.3 mph N/A   Clear
3:33 AM 33.8 °F 24.8 °F 30.2 °F 87% 30.10 in 10.0 mi WSW 12.7 mph 19.6 mph N/A   Clear
3:53 AM 33.8 °F 23.5 °F 30.2 °F 87% 30.09 in 10.0 mi WSW 16.1 mph 19.6 mph N/A   Clear
4:13 AM 33.8 °F 25.3 °F 28.4 °F 81% 30.08 in 10.0 mi SW 11.5 mph 18.4 mph N/A   Scattered Clouds
4:34 AM 33.8 °F 24.8 °F 30.2 °F 87% 30.06 in 10.0 mi SW 12.7 mph 16.1 mph N/A   Mostly Cloudy
4:54 AM 33.8 °F 24.8 °F 28.4 °F 81% 30.05 in 10.0 mi SW 12.7 mph 18.4 mph N/A   Scattered Clouds
5:14 AM 33.8 °F 24.3 °F 28.4 °F 81% 30.05 in 10.0 mi WSW 13.8 mph - N/A   Clear
5:34 AM 33.8 °F 25.3 °F 28.4 °F 81% 30.05 in 10.0 mi WSW 11.5 mph 19.6 mph N/A   Clear
5:54 AM 33.8 °F 25.3 °F 28.4 °F 81% 30.05 in 10.0 mi WSW 11.5 mph - N/A   Clear
6:14 AM 33.8 °F 24.8 °F 28.4 °F 81% 30.05 in 10.0 mi WSW 12.7 mph 19.6 mph N/A   Clear
6:34 AM 33.8 °F 23.2 °F 28.4 °F 81% 30.05 in 10.0 mi SW 17.3 mph - N/A   Clear
6:54 AM 33.8 °F 24.3 °F 30.2 °F 87% 30.04 in 10.0 mi SW 13.8 mph - N/A   Clear
7:15 AM 33.8 °F 25.3 °F 28.4 °F 81% 30.04 in 10.0 mi SW 11.5 mph - N/A   Clear
7:35 AM 33.8 °F 24.8 °F 28.4 °F 81% 30.03 in 10.0 mi SW 12.7 mph - N/A   Clear
7:55 AM 33.8 °F 24.8 °F 28.4 °F 81% 30.02 in 10.0 mi SW 12.7 mph 17.3 mph N/A   Clear
8:15 AM 33.8 °F 23.9 °F 28.4 °F 81% 30.01 in 10.0 mi SW 15.0 mph - N/A   Clear
8:35 AM 35.6 °F 26.2 °F 28.4 °F 75% 30.00 in 10.0 mi SW 15.0 mph 20.7 mph N/A   Clear
8:55 AM 35.6 °F 26.2 °F 28.4 °F 75% 29.99 in 10.0 mi SW 15.0 mph 23.0 mph N/A   Clear
9:15 AM 37.4 °F 29.3 °F 28.4 °F 70% 29.97 in 10.0 mi SW 12.7 mph - N/A   Clear
9:35 AM 37.4 °F 28.5 °F 28.4 °F 70% 29.97 in 10.0 mi SW 15.0 mph 21.9 mph N/A   Clear
9:50 AM 37.4 °F 27.8 °F 28.4 °F 70% 29.97 in 10.0 mi SW 17.3 mph 20.7 mph N/A   Clear
10:10 AM 39.2 °F 30.5 °F 28.4 °F 65% 29.97 in 10.0 mi WSW 16.1 mph 21.9 mph N/A   Clear
10:30 AM 39.2 °F 29.3 °F 30.2 °F 70% 29.97 in 10.0 mi WSW 20.7 mph 25.3 mph N/A   Clear
10:51 AM 39.2 °F 29.8 °F 30.2 °F 70% 29.97 in 10.0 mi WSW 18.4 mph 31.1 mph N/A   Clear
11:11 AM 39.2 °F 28.5 °F 30.2 °F 70% 29.96 in 10.0 mi WSW 24.2 mph 29.9 mph N/A   Clear
11:31 AM 39.2 °F 29.8 °F 30.2 °F 70% 29.94 in 10.0 mi WSW 18.4 mph 31.1 mph N/A   Clear
11:51 AM 41.0 °F 31.4 °F 30.2 °F 65% 29.93 in 10.0 mi WSW 21.9 mph 28.8 mph N/A   Clear
12:11 PM 42.8 °F 34.5 °F 30.2 °F 61% 29.92 in 10.0 mi WSW 18.4 mph 24.2 mph N/A   Clear
12:31 PM 42.8 °F 33.8 °F 30.2 °F 61% 29.94 in 10.0 mi West 21.9 mph 27.6 mph N/A   Clear
12:51 PM 42.8 °F 33.5 °F 30.2 °F 61% 29.94 in 10.0 mi WSW 23.0 mph 29.9 mph N/A   Mostly Cloudy
1:11 PM 42.8 °F 34.0 °F 30.2 °F 61% 29.92 in 10.0 mi WSW 20.7 mph 26.5 mph N/A   Mostly Cloudy
1:32 PM 44.6 °F 37.8 °F 30.2 °F 57% 29.92 in 10.0 mi West 15.0 mph 26.5 mph N/A   Scattered Clouds
1:52 PM 44.6 °F 35.9 °F 28.4 °F 53% 29.93 in 10.0 mi West 23.0 mph 26.5 mph N/A   Clear
2:12 PM 44.6 °F 37.4 °F 30.2 °F 57% 29.93 in 10.0 mi West 16.1 mph 28.8 mph N/A   Mostly Cloudy
2:32 PM 42.8 °F 35.1 °F 30.2 °F 61% 29.94 in 10.0 mi West 16.1 mph 21.9 mph N/A   Overcast
2:52 PM 42.8 °F 33.8 °F 30.2 °F 61% 29.95 in 10.0 mi West 21.9 mph 28.8 mph N/A   Overcast
3:12 PM 42.8 °F 34.3 °F 30.2 °F 61% 29.95 in 10.0 mi West 19.6 mph 24.2 mph N/A   Overcast
3:33 PM 42.8 °F 35.1 °F 30.2 °F 61% 29.97 in 10.0 mi West 16.1 mph 21.9 mph N/A   Overcast
3:53 PM 42.8 °F 34.0 °F 30.2 °F 61% 29.98 in 10.0 mi West 20.7 mph 26.5 mph N/A   Overcast
4:13 PM 42.8 °F 35.1 °F 30.2 °F 61% 29.99 in 10.0 mi West 16.1 mph 28.8 mph N/A   Overcast
4:33 PM 42.8 °F 35.1 °F 30.2 °F 61% 30.02 in 10.0 mi WNW 16.1 mph 26.5 mph N/A   Overcast
4:53 PM 41.0 °F 32.8 °F 28.4 °F 61% 30.03 in 10.0 mi WNW 16.1 mph 25.3 mph N/A   Overcast
5:13 PM 41.0 °F 32.2 °F 26.6 °F 57% 30.04 in 10.0 mi WNW 18.4 mph 31.1 mph N/A   Overcast
5:33 PM 39.2 °F 30.8 °F 26.6 °F 61% 30.06 in 10.0 mi WNW 15.0 mph 23.0 mph N/A   Overcast
5:54 PM 39.2 °F 30.8 °F 28.4 °F 65% 30.07 in 10.0 mi WNW 15.0 mph 24.2 mph N/A   Overcast
6:14 PM 39.2 °F 31.2 °F 28.4 °F 65% 30.08 in 10.0 mi WNW 13.8 mph 24.2 mph N/A   Overcast
6:34 PM 39.2 °F 30.8 °F 28.4 °F 65% 30.09 in 10.0 mi WNW 15.0 mph 24.2 mph N/A   Overcast
6:54 PM 39.2 °F 32.0 °F 28.4 °F 65% 30.11 in 10.0 mi WNW 11.5 mph 18.4 mph N/A   Overcast
7:14 PM 39.2 °F 32.0 °F 28.4 °F 65% 30.11 in 10.0 mi WNW 11.5 mph - N/A   Overcast
7:34 PM 39.2 °F 31.6 °F 28.4 °F 65% 30.12 in 10.0 mi WNW 12.7 mph 17.3 mph N/A   Overcast
7:54 PM 39.2 °F 32.5 °F 28.4 °F 65% 30.14 in 10.0 mi WNW 10.4 mph - N/A   Overcast
8:15 PM 39.2 °F 31.6 °F 28.4 °F 65% 30.14 in 10.0 mi WNW 12.7 mph - N/A   Overcast
8:35 PM 39.2 °F 32.0 °F 28.4 °F 65% 30.15 in 10.0 mi WNW 11.5 mph 17.3 mph N/A   Overcast
8:55 PM 39.2 °F 32.5 °F 28.4 °F 65% 30.16 in 10.0 mi West 10.4 mph - N/A   Overcast
9:15 PM 37.4 °F 31.4 °F 30.2 °F 75% 30.17 in 10.0 mi WNW 8.1 mph - N/A   Overcast
9:35 PM 37.4 °F 31.4 °F 30.2 °F 75% 30.17 in 10.0 mi WNW 8.1 mph - N/A   Overcast
10:10 PM 37.4 °F 32.1 °F 30.2 °F 75% 30.18 in 10.0 mi WNW 6.9 mph - N/A   Overcast
10:31 PM 37.4 °F 32.8 °F 30.2 °F 75% 30.18 in 10.0 mi West 5.8 mph - N/A   Overcast
10:51 PM 37.4 °F 33.8 °F 30.2 °F 75% 30.19 in 10.0 mi West 4.6 mph - N/A   Overcast
11:11 PM 37.4 °F 32.8 °F 30.2 °F 75% 30.20 in 10.0 mi West 5.8 mph - N/A   Overcast
11:31 PM 35.6 °F 31.7 °F 28.4 °F 75% 30.20 in 10.0 mi West 4.6 mph - N/A   Scattered Clouds
11:51 PM 33.8 °F 29.6 °F 28.4 °F 81% 30.21 in 10.0 mi West 4.6 mph - N/A   Clear